User: anonymous   Login
Location: Unspecified
(0.0000°N, 0.0000°E)
Time: 08:35:59
(UTC+00:00)
Language:

SINAH 1 - Orbit

View from above orbital plane
View from above orbital plane
View from above satellite
View from above satellite

Ground track
Ground track

The orbit data is extracted from the following two-line orbital elements,

1 28893U 05043D   17293.51764608 +.00000011 +00000-0 +11226-4 0  9999
2 28893 097.8909 085.7486 0016483 115.9942 244.2960 14.61450875638505
Epoch (UTC): 20 October 2017 12:25:24
Eccentricity: 0.0016483
inclination: 97.8909°
perigee height: 677 km
apogee height: 700 km
right ascension of ascending node: 85.7486°
argument of perigee: 115.9942°
revolutions per day: 14.61450875
mean anomaly at epoch: 244.2960°
orbit number at epoch: 63850

The dashed part of the orbit path shows where the satellite is in the earth's shadow,  

DLR